Regional Weather Roundup
Issued by NWS Sterling, VA

Home | Current Version | Previous Version | Graphics & Text | Print | Product List | Glossary On
Versions: 1 2 3 4 5 6 7 8 9 10 11 12 13 14 15 16 17 18 19 20 21 22 23 24 25 26 27 28 29 30 31 32 33 34 35 36 37 38 39 40 41 42 43 44 45 46 47 48 49 50
000
ASUS41 KLWX 030910
RWRLWX

REGIONAL WEATHER ROUNDUP
NATIONAL WEATHER SERVICE BALTIMORE MD/WASHINGTON DC
500 AM EDT FRI JUL 03 2015

Note: "FAIR" indicates few or no clouds below 12,000 feet
with no significant weather and/or obstructions to visibility.
 TC=TEMPERATURE CELSIUS

 * =Non NWS site. Station does not report precipitation (e.g. rain,
    snow, etc.), thunder, or fog.

DCZ001-MDZ009-015-VAZ040>042-051-053>054-031000-
WASHINGTON METRO

CITY           SKY/WX    TMP DP  RH WIND       PRES   REMARKS
WASHINGTON NAT PTCLDY    68  63  84 CALM      29.93R
DULLES         PTCLDY    60  58  92 CALM      29.93S FOG
ANDREWS AFB    FOG       61  61 100 S1        29.93R VSB 1/2
FT BELVOIR     CLEAR     61  59  94 SE1       29.93R FOG
COLLEGE PARK*  CLOUDY    61  61 100 CALM      29.93R VSB 1/2
LEESBURG*      FOG       61  61 100 CALM      29.95S VSB 1/4
MANASSAS*      CLOUDY    63  61  94 CALM      29.94R VSB<1/4
GAITHERSBURG*  CLEAR     61  57  88 CALM      29.97S

$$

MDZ006>007-011-014-031000-
BALTIMORE METRO

CITY           SKY/WX    TMP DP  RH WIND       PRES   REMARKS
BWI AIRPORT    CLEAR     61  61 100 CALM      29.92S
MD SCIENCE CTR   N/A     68  63  84 MISG      29.92S
MARTIN STATE   CLEAR     63  63 100 CALM      29.94R FOG
ANNAPOLIS      CLEAR     66  63  90 W3        29.92R FOG
FORT MEADE*    MOCLDY    57  55  94 CALM      29.95S

$$

MDZ012-015-019>023-031000-
MARYLAND EASTERN SHORE

CITY           SKY/WX    TMP DP  RH WIND       PRES   REMARKS
OCEAN CITY     CLEAR     63  62  97 CALM      29.92R FOG
SALISBURY      CLEAR     62  61  96 CALM      29.92R FOG
BAY BRIDGE AP*   N/A     66  64  94 NW3       29.93R
CAMBRIDGE*       N/A     61  59  94 CALM      29.92R
EASTON*        CLEAR     63  63 100 CALM      29.96R

$$

MDZ017>025-031000-
SOUTHERN MARYLAND

CITY           SKY/WX    TMP DP  RH WIND       PRES   REMARKS
PATUXENT RIVER CLEAR     64  63  96 W6        29.92R
ST INIGOES     CLEAR     64  63  96 CALM      29.91S FOG
LEONARDTOWN*   CLOUDY    61  61 100 CALM      29.95R VSB 1/4

$$

MDZ003>005-031000-
NORTH CENTRAL MARYLAND

CITY           SKY/WX    TMP DP  RH WIND       PRES   REMARKS
FREDERICK*     FOG       61  61 100 CALM      29.97S VSB 1/4
HAGERSTOWN APT CLOUDY    66  62  87 CALM      29.95R FOG
WESTMINSTER*   MOCLDY    61  59  94 CALM      29.96R FOG

$$

MDZ501>502-031000-
WESTERN MARYLAND

CITY           SKY/WX    TMP DP  RH WIND       PRES   REMARKS
OAKLAND*       CLEAR     57 N/A N/A CALM      30.02S
CUMBERLAND*    CLEAR     59  59 100 N5        30.01R

$$

VAZ025>031-031000-
SHENANDOAH VALLEY

CITY           SKY/WX    TMP DP  RH WIND       PRES   REMARKS
WINCHESTER*    CLEAR     61  61 100 CALM      29.95S FOG
FRONT ROYAL*   FAIR      61  61 100 S3        29.94S
LURAY*         FOG       61  61 100 CALM      29.96S VSB<1/4
NEW MARKET*    CLOUDY    60  60 100 CALM      29.95S VSB 1/4
STAUNTON*      FOG       64  63  95 CALM      29.99R VSB 1/4
WAYNESBORO*    PTSUNNY   59  59  99 SE3       29.98S

$$

WVZ021-048>050-054>055-031000-
EASTERN WEST VIRGINIA PANHANDLE

CITY           SKY/WX    TMP DP  RH WIND       PRES   REMARKS
MARTINSBURG    FOG       63  62  97 CALM      29.95S VSB<1/4
PETERSBURG*    CLOUDY    57  55  92 CALM      29.98S FOG

$$

VAZ036>039-050-031000-
CENTRAL FOOTHILLS

CITY           SKY/WX    TMP DP  RH WIND       PRES   REMARKS
CHARLOTTESVILL MOCLDY    62  61  96 CALM      29.94S FOG
CULPEPER*      FOG       58  58 100 CALM      29.95S VSB 1/2
ORANGE*          N/A     63  61  94 CALM      29.95S FOG
GORDONSVILLE*  FOG       61  61 100 CALM      29.93S VSB 3/4
WARRENTON*     FOG       61  61 100 CALM      29.93S VSB<1/4

$$

VAZ055>057-031000-
NORTH AND CENTRAL PIEDMONT

CITY           SKY/WX    TMP DP  RH WIND       PRES   REMARKS
FREDERICKSBRG* CLEAR     64  64 100 CALM      29.93S FOG
STAFFORD*        N/A     58  57  97 CALM      29.97S FOG

$$

NCZ024-NYZ072-PAZ021-071-VAZ022-071-031000-
OTHER REGIONAL OBSERVATIONS

CITY           SKY/WX    TMP DP  RH WIND       PRES   REMARKS
NEW YORK CITY  CLEAR     68  53  58 CALM      29.94R
PHILADELPHIA   CLEAR     67  62  84 NW3       29.92R
PITTSBURGH     PTCLDY    59  53  80 CALM      29.96F
ROANOKE        CLOUDY    68  66  93 CALM      29.97R FOG
RICHMOND       MOCLDY    68  65  90 N3        29.93R FOG
RALEIGH        MOCLDY    70  68  93 CALM      29.94R FOG

$$

ANZ530>537-031000-
MARINE OBSERVATIONS

STATION/POSITION TIME  TEMP    WIND        PRES
                       AIR SEA DIR/SP/G
                 (UTC) (F)     (DEG/KT/KT) (MB)
THOMAS PT LIGHT  0800   69 76  310/  7/  8 1013.4R
BALT KEY BRIDGE  0800   67     230/  5/  6 1013.1R
COVE POINT       0800   69     310/  5/  6 1013.3S
LEWISETTA        0800   69 79  320/  4/  5 1012.7R
SOLOMONS ISLAND  0800      79                N/A
PINEY POINT      0800           10/  4/  5   N/A

$$




USA.gov is the U.S. government's official web portal to all federal, state and local government web resources and services.